Time,TemperatureF,DewpointF,PressureIn,WindDirection,WindDirectionDegrees,WindSpeedMPH,WindSpeedGustMPH,Humidity,HourlyPrecipIn,Conditions,Clouds,dailyrainin,SoftwareType,DateUTC
2013-07-03 00:01:00,61.0,56.0,30.03,NNE,31,1.0,3.0,83,0.00,,,0.05,,2013-07-03 05:01:00,
2013-07-03 00:11:00,61.0,56.0,30.02,North,5,2.0,4.0,84,0.00,,,0.05,,2013-07-03 05:11:00,
2013-07-03 00:23:00,60.0,55.0,30.01,NNE,24,1.0,4.0,83,0.00,,,0.05,,2013-07-03 05:23:00,
2013-07-03 00:37:00,60.0,55.0,30.01,NNE,24,1.0,4.0,83,0.00,,,0.05,,2013-07-03 05:37:00,
2013-07-03 00:47:00,60.0,55.0,30.01,NNE,32,0.0,2.0,84,0.00,,,0.05,,2013-07-03 05:47:00,
2013-07-03 00:56:00,60.0,55.0,30.01,NNE,32,0.0,1.0,85,0.00,,,0.05,,2013-07-03 05:56:00,
2013-07-03 01:06:00,60.0,55.0,30.01,NNE,32,0.0,1.0,85,0.00,,,0.05,,2013-07-03 06:06:00,
2013-07-03 01:14:00,59.0,55.0,30.01,NNE,32,0.0,2.0,86,0.00,,,0.05,,2013-07-03 06:14:00,
2013-07-03 01:24:00,59.0,55.0,30.01,NNE,32,0.0,2.0,87,0.00,,,0.05,,2013-07-03 06:24:00,
2013-07-03 01:39:00,59.0,55.0,30.01,NNE,32,0.0,2.0,87,0.00,,,0.05,,2013-07-03 06:39:00,
2013-07-03 01:48:00,58.0,54.0,30.01,NNE,32,0.0,1.0,88,0.00,,,0.05,,2013-07-03 06:48:00,
2013-07-03 01:54:00,58.0,55.0,30.01,NNE,32,0.0,1.0,89,0.00,,,0.05,,2013-07-03 06:54:00,
2013-07-03 02:04:00,58.0,55.0,30.01,NNE,32,0.0,1.0,89,0.00,,,0.05,,2013-07-03 07:04:00,
2013-07-03 02:15:00,58.0,55.0,30.01,NNE,32,0.0,2.0,90,0.00,,,0.05,,2013-07-03 07:15:00,
2013-07-03 02:26:00,58.0,55.0,30.00,NNE,32,0.0,1.0,91,0.00,,,0.05,,2013-07-03 07:26:00,
2013-07-03 02:37:00,58.0,55.0,30.00,NNE,32,0.0,1.0,91,0.00,,,0.05,,2013-07-03 07:37:00,
2013-07-03 02:47:00,58.0,55.0,30.00,NNE,32,0.0,1.0,91,0.00,,,0.05,,2013-07-03 07:47:00,
2013-07-03 02:56:00,57.0,55.0,29.99,NNE,32,0.0,2.0,92,0.00,,,0.05,,2013-07-03 07:56:00,
2013-07-03 03:08:00,57.0,55.0,29.99,NNE,32,0.0,2.0,92,0.00,,,0.05,,2013-07-03 08:08:00,
2013-07-03 03:16:00,57.0,55.0,30.00,NNE,32,0.0,0.0,92,0.00,,,0.05,,2013-07-03 08:16:00,
2013-07-03 03:25:00,58.0,56.0,29.99,NNE,32,0.0,1.0,92,0.00,,,0.05,,2013-07-03 08:25:00,
2013-07-03 03:36:00,58.0,56.0,29.99,NNE,32,0.0,1.0,92,0.00,,,0.05,,2013-07-03 08:36:00,
2013-07-03 03:45:00,58.0,55.0,29.99,NNW,347,1.0,3.0,91,0.00,,,0.05,,2013-07-03 08:45:00,
2013-07-03 03:55:00,58.0,55.0,29.98,North,355,1.0,2.0,91,0.00,,,0.05,,2013-07-03 08:55:00,
2013-07-03 04:05:00,58.0,55.0,29.98,North,355,1.0,2.0,91,0.00,,,0.05,,2013-07-03 09:05:00,
2013-07-03 04:16:00,58.0,55.0,29.99,North,355,0.0,3.0,91,0.00,,,0.05,,2013-07-03 09:16:00,
2013-07-03 04:24:00,59.0,56.0,29.99,North,355,0.0,2.0,91,0.00,,,0.05,,2013-07-03 09:24:00,
2013-07-03 04:37:00,59.0,56.0,29.99,North,355,0.0,2.0,91,0.00,,,0.05,,2013-07-03 09:37:00,
2013-07-03 04:46:00,59.0,56.0,29.99,North,355,0.0,2.0,91,0.00,,,0.05,,2013-07-03 09:46:00,
2013-07-03 04:55:00,59.0,56.0,29.99,North,355,0.0,3.0,91,0.00,,,0.05,,2013-07-03 09:55:00,
2013-07-03 05:05:00,59.0,56.0,29.99,North,355,0.0,3.0,91,0.00,,,0.05,,2013-07-03 10:05:00,
2013-07-03 05:15:00,59.0,56.0,29.99,North,355,0.0,0.0,91,0.00,,,0.05,,2013-07-03 10:15:00,
2013-07-03 05:27:00,59.0,56.0,30.00,North,355,0.0,2.0,90,0.00,,,0.05,,2013-07-03 10:27:00,
2013-07-03 05:36:00,59.0,56.0,30.00,North,355,0.0,2.0,90,0.00,,,0.05,,2013-07-03 10:36:00,
2013-07-03 05:55:00,59.0,56.0,30.00,North,360,0.0,3.0,91,0.00,,,0.05,,2013-07-03 10:55:00,
2013-07-03 06:06:00,59.0,56.0,30.00,North,360,0.0,3.0,91,0.00,,,0.05,,2013-07-03 11:06:00,
2013-07-03 06:16:00,59.0,56.0,30.01,NNE,17,1.0,5.0,90,0.00,,,0.05,,2013-07-03 11:16:00,
2013-07-03 06:25:00,59.0,56.0,30.01,NNE,17,0.0,2.0,91,0.00,,,0.05,,2013-07-03 11:25:00,
2013-07-03 06:38:00,59.0,56.0,30.01,NNE,17,0.0,2.0,91,0.00,,,0.05,,2013-07-03 11:38:00,
2013-07-03 06:43:00,59.0,56.0,30.01,NNE,17,0.0,2.0,90,0.00,,,0.05,,2013-07-03 11:43:00,
2013-07-03 06:53:00,60.0,57.0,30.01,NNE,17,0.0,4.0,91,0.00,,,0.05,,2013-07-03 11:53:00,
2013-07-03 07:08:00,60.0,57.0,30.01,NNE,17,0.0,4.0,91,0.00,,,0.05,,2013-07-03 12:08:00,
2013-07-03 07:16:00,60.0,57.0,30.01,NNE,17,0.0,3.0,91,0.00,,,0.05,,2013-07-03 12:16:00,
2013-07-03 07:24:00,60.0,57.0,30.02,NNE,18,1.0,4.0,91,0.00,,,0.05,,2013-07-03 12:24:00,
2013-07-03 07:37:00,60.0,57.0,30.02,NNE,18,1.0,4.0,91,0.00,,,0.05,,2013-07-03 12:37:00,
2013-07-03 07:43:00,60.0,57.0,30.02,North,11,2.0,5.0,91,0.00,,,0.05,,2013-07-03 12:43:00,
2013-07-03 07:56:00,60.0,57.0,30.02,NNE,17,1.0,4.0,91,0.00,,,0.05,,2013-07-03 12:56:00,
2013-07-03 08:06:00,60.0,57.0,30.02,NNE,17,1.0,4.0,91,0.00,,,0.05,,2013-07-03 13:06:00,
2013-07-03 08:16:00,60.0,57.0,30.03,NNE,17,0.0,2.0,91,0.00,,,0.05,,2013-07-03 13:16:00,
2013-07-03 08:24:00,60.0,57.0,30.03,NNE,17,0.0,2.0,91,0.00,,,0.05,,2013-07-03 13:24:00,
2013-07-03 08:47:00,60.0,57.0,30.03,NNE,17,1.0,3.0,91,0.00,,,0.05,,2013-07-03 13:47:00,
2013-07-03 08:54:00,60.0,57.0,30.04,NE,38,1.0,4.0,91,0.00,,,0.05,,2013-07-03 13:54:00,
2013-07-03 09:06:00,60.0,57.0,30.04,NE,38,1.0,4.0,91,0.00,,,0.05,,2013-07-03 14:06:00,
2013-07-03 09:15:00,60.0,57.0,30.04,NE,35,1.0,4.0,91,0.00,,,0.05,,2013-07-03 14:15:00,
2013-07-03 09:26:00,61.0,59.0,30.04,NNW,342,1.0,3.0,92,0.00,,,0.05,,2013-07-03 14:26:00,
2013-07-03 09:37:00,61.0,59.0,30.04,NNW,342,1.0,3.0,92,0.00,,,0.05,,2013-07-03 14:37:00,
2013-07-03 09:46:00,61.0,58.0,30.04,NE,35,0.0,4.0,91,0.00,,,0.05,,2013-07-03 14:46:00,
2013-07-03 09:54:00,61.0,58.0,30.03,North,11,1.0,4.0,90,0.00,,,0.05,,2013-07-03 14:54:00,
2013-07-03 10:05:00,61.0,58.0,30.03,North,11,1.0,4.0,90,0.00,,,0.05,,2013-07-03 15:05:00,
2013-07-03 10:14:00,61.0,58.0,30.03,North,5,1.0,5.0,90,0.00,,,0.05,,2013-07-03 15:14:00,
2013-07-03 10:26:00,62.0,59.0,30.03,NNE,18,2.0,5.0,89,0.00,,,0.05,,2013-07-03 15:26:00,
2013-07-03 10:37:00,62.0,59.0,30.03,NNE,18,2.0,5.0,89,0.00,,,0.05,,2013-07-03 15:37:00,
2013-07-03 10:47:00,62.0,58.0,30.04,WNW,288,1.0,5.0,88,0.00,,,0.05,,2013-07-03 15:47:00,
2013-07-03 10:55:00,63.0,59.0,30.04,NNE,17,3.0,5.0,88,0.00,,,0.05,,2013-07-03 15:55:00,
2013-07-03 11:06:00,63.0,59.0,30.04,NNE,17,3.0,5.0,88,0.00,,,0.05,,2013-07-03 16:06:00,
2013-07-03 11:16:00,63.0,59.0,30.04,NW,323,0.0,4.0,86,0.00,,,0.05,,2013-07-03 16:16:00,
2013-07-03 11:23:00,64.0,60.0,30.04,NNE,30,1.0,3.0,86,0.00,,,0.05,,2013-07-03 16:23:00,
2013-07-03 11:37:00,64.0,60.0,30.04,NNE,30,1.0,3.0,86,0.00,,,0.05,,2013-07-03 16:37:00,
2013-07-03 11:46:00,64.0,60.0,30.04,NE,40,1.0,3.0,87,0.00,,,0.05,,2013-07-03 16:46:00,
2013-07-03 11:55:00,64.0,60.0,30.04,NNE,25,2.0,3.0,86,0.00,,,0.05,,2013-07-03 16:55:00,
2013-07-03 12:16:00,64.0,60.0,30.04,NNE,30,0.0,3.0,86,0.00,,,0.05,,2013-07-03 17:16:00,
2013-07-03 12:24:00,64.0,60.0,30.04,NE,34,1.0,3.0,86,0.00,,,0.05,,2013-07-03 17:24:00,
2013-07-03 12:40:00,64.0,60.0,30.04,NE,34,1.0,3.0,86,0.00,,,0.05,,2013-07-03 17:40:00,
2013-07-03 12:46:00,65.0,61.0,30.04,ENE,66,0.0,3.0,86,0.00,,,0.05,,2013-07-03 17:46:00,
2013-07-03 12:53:00,66.0,62.0,30.04,East,89,0.0,4.0,86,0.00,,,0.05,,2013-07-03 17:53:00,
2013-07-03 13:15:00,66.0,61.0,30.04,North,360,2.0,4.0,84,0.00,,,0.05,,2013-07-03 18:15:00,
2013-07-03 13:25:00,65.0,60.0,30.03,ENE,69,2.0,4.0,85,0.00,,,0.05,,2013-07-03 18:25:00,
2013-07-03 13:36:00,65.0,60.0,30.03,ENE,69,2.0,4.0,85,0.00,,,0.05,,2013-07-03 18:36:00,
2013-07-03 13:45:00,65.0,60.0,30.03,North,360,0.0,3.0,84,0.00,,,0.05,,2013-07-03 18:45:00,
2013-07-03 13:56:00,65.0,60.0,30.04,ENE,69,0.0,2.0,84,0.00,,,0.05,,2013-07-03 18:56:00,
2013-07-03 14:04:00,65.0,60.0,30.04,ENE,69,0.0,2.0,84,0.00,,,0.05,,2013-07-03 19:04:00,
2013-07-03 14:29:00,66.0,61.0,30.03,ENE,69,0.0,1.0,84,0.00,,,0.05,,2013-07-03 19:29:00,
2013-07-03 14:46:00,66.0,61.0,30.03,East,86,0.0,2.0,83,0.00,,,0.05,,2013-07-03 19:46:00,
2013-07-03 14:55:00,66.0,61.0,30.03,ESE,116,1.0,3.0,84,0.00,,,0.05,,2013-07-03 19:55:00,
2013-07-03 15:03:00,66.0,61.0,30.03,ESE,116,1.0,3.0,84,0.00,,,0.05,,2013-07-03 20:03:00,
2013-07-03 15:14:00,66.0,61.0,30.03,SSW,201,0.0,3.0,84,0.00,,,0.05,,2013-07-03 20:14:00,
2013-07-03 15:24:00,66.0,61.0,30.03,SSW,201,0.0,0.0,84,0.00,,,0.04,,2013-07-03 20:24:00,
2013-07-03 15:36:00,66.0,61.0,30.03,SSW,201,0.0,0.0,84,0.00,,,0.04,,2013-07-03 20:36:00,
2013-07-03 15:44:00,67.0,61.0,30.02,SSW,201,0.0,1.0,82,0.00,,,0.04,,2013-07-03 20:44:00,
2013-07-03 15:54:00,68.0,63.0,30.02,SSE,160,0.0,2.0,83,0.00,,,0.04,,2013-07-03 20:54:00,
2013-07-03 16:06:00,68.0,63.0,30.02,SSE,160,0.0,2.0,83,0.00,,,0.04,,2013-07-03 21:06:00,
2013-07-03 16:13:00,68.0,62.0,30.01,SSE,155,1.0,3.0,80,0.00,,,0.04,,2013-07-03 21:13:00,
2013-07-03 16:35:00,70.0,64.0,30.01,ENE,77,0.0,3.0,80,0.00,,,0.00,,2013-07-03 21:35:00,
2013-07-03 16:44:00,70.0,62.0,30.01,ENE,76,0.0,2.0,76,0.00,,,0.00,,2013-07-03 21:44:00,
2013-07-03 16:53:00,71.0,63.0,30.01,SW,231,0.0,4.0,75,0.00,,,0.00,,2013-07-03 21:53:00,
2013-07-03 17:05:00,71.0,63.0,30.01,SW,231,0.0,4.0,75,0.00,,,0.00,,2013-07-03 22:05:00,
2013-07-03 17:14:00,72.0,63.0,30.01,NNW,345,0.0,5.0,73,0.00,,,0.00,,2013-07-03 22:14:00,
2013-07-03 17:26:00,72.0,62.0,30.01,SSE,165,1.0,3.0,71,0.00,,,0.00,,2013-07-03 22:26:00,
2013-07-03 17:37:00,72.0,62.0,30.01,SSE,165,1.0,3.0,71,0.00,,,0.00,,2013-07-03 22:37:00,
2013-07-03 17:45:00,72.0,62.0,30.01,SSW,211,0.0,3.0,70,0.00,,,0.00,,2013-07-03 22:45:00,
2013-07-03 17:54:00,73.0,63.0,30.00,SW,234,0.0,3.0,71,0.00,,,0.00,,2013-07-03 22:54:00,
2013-07-03 18:04:00,73.0,63.0,30.00,SW,234,0.0,3.0,71,0.00,,,0.00,,2013-07-03 23:04:00,
2013-07-03 18:14:00,72.0,62.0,30.00,South,183,0.0,3.0,70,0.00,,,0.00,,2013-07-03 23:14:00,
2013-07-03 18:24:00,72.0,62.0,30.00,West,263,0.0,1.0,71,0.00,,,0.00,,2013-07-03 23:24:00,
2013-07-03 18:39:00,72.0,62.0,30.00,West,263,0.0,1.0,71,0.00,,,0.00,,2013-07-03 23:39:00,
2013-07-03 18:44:00,73.0,61.0,30.00,West,263,0.0,1.0,66,0.00,,,0.00,,2013-07-03 23:44:00,
2013-07-03 18:53:00,73.0,61.0,29.99,SW,226,0.0,2.0,66,0.00,,,0.00,,2013-07-03 23:53:00,
2013-07-03 19:03:00,73.0,61.0,29.99,SW,226,0.0,2.0,66,0.00,,,0.00,,2013-07-04 00:03:00,
2013-07-03 19:15:00,74.0,63.0,29.99,SW,226,0.0,1.0,69,0.00,,,0.00,,2013-07-04 00:15:00,
2013-07-03 19:24:00,73.0,63.0,30.00,SW,226,0.0,1.0,71,0.00,,,0.00,,2013-07-04 00:24:00,
2013-07-03 19:36:00,73.0,63.0,30.00,SW,226,0.0,1.0,71,0.00,,,0.00,,2013-07-04 00:36:00,
2013-07-03 19:47:00,72.0,63.0,30.00,SW,226,0.0,1.0,74,0.00,,,0.00,,2013-07-04 00:47:00,
2013-07-03 19:55:00,70.0,62.0,30.00,SW,226,0.0,0.0,76,0.00,,,0.00,,2013-07-04 00:55:00,
2013-07-03 20:03:00,70.0,62.0,30.00,SW,226,0.0,0.0,76,0.00,,,0.00,,2013-07-04 01:03:00,
2013-07-03 20:15:00,69.0,63.0,30.00,SW,226,0.0,0.0,82,0.00,,,0.00,,2013-07-04 01:15:00,
2013-07-03 20:23:00,68.0,63.0,30.00,SW,226,0.0,0.0,84,0.00,,,0.00,,2013-07-04 01:23:00,
2013-07-03 20:37:00,68.0,63.0,30.00,SW,226,0.0,0.0,84,0.00,,,0.00,,2013-07-04 01:37:00,
2013-07-03 20:43:00,67.0,62.0,30.01,SW,226,0.0,0.0,85,0.00,,,0.00,,2013-07-04 01:43:00,
2013-07-03 20:53:00,66.0,62.0,30.01,SW,226,0.0,0.0,87,0.00,,,0.00,,2013-07-04 01:53:00,
2013-07-03 21:06:00,66.0,62.0,30.01,SW,226,0.0,0.0,87,0.00,,,0.00,,2013-07-04 02:06:00,
2013-07-03 21:23:00,64.0,61.0,30.01,SW,226,0.0,0.0,90,0.00,,,0.00,,2013-07-04 02:23:00,
2013-07-03 21:38:00,64.0,61.0,30.01,SW,226,0.0,0.0,90,0.00,,,0.00,,2013-07-04 02:38:00,
2013-07-03 21:47:00,64.0,62.0,30.01,SW,226,0.0,0.0,92,0.00,,,0.00,,2013-07-04 02:47:00,
2013-07-03 21:55:00,64.0,62.0,30.03,SW,226,0.0,1.0,92,0.00,,,0.00,,2013-07-04 02:55:00,
2013-07-03 22:14:00,64.0,62.0,30.03,SW,226,0.0,1.0,92,0.00,,,0.00,,2013-07-04 03:14:00,
2013-07-03 22:26:00,64.0,62.0,30.03,SW,226,0.0,0.0,92,0.00,,,0.00,,2013-07-04 03:26:00,
2013-07-03 22:35:00,64.0,62.0,30.03,SW,226,0.0,0.0,92,0.00,,,0.00,,2013-07-04 03:35:00,
2013-07-03 22:46:00,63.0,61.0,30.04,SW,226,0.0,0.0,92,0.00,,,0.00,,2013-07-04 03:46:00,
2013-07-03 22:56:00,62.0,60.0,30.03,SW,226,0.0,0.0,92,0.00,,,0.00,,2013-07-04 03:56:00,
2013-07-03 23:02:00,62.0,60.0,30.03,SW,226,0.0,0.0,92,0.00,,,0.00,,2013-07-04 04:02:00,
2013-07-03 23:11:00,62.0,60.0,30.03,SW,226,0.0,0.0,93,0.00,,,0.00,,2013-07-04 04:11:00,
2013-07-03 23:22:00,62.0,60.0,30.03,SW,226,0.0,0.0,93,0.00,,,0.00,,2013-07-04 04:22:00,
2013-07-03 23:33:00,62.0,60.0,30.03,SW,226,0.0,0.0,93,0.00,,,0.00,,2013-07-04 04:33:00,
2013-07-03 23:43:00,61.0,59.0,30.04,SW,226,0.0,0.0,94,0.00,,,0.00,,2013-07-04 04:43:00,
2013-07-03 23:52:00,61.0,59.0,30.04,SW,226,0.0,0.0,94,0.00,,,0.00,,2013-07-04 04:52:00,